sat.trackr.live / text

‹ back to catalog

STARLINK-35823

NORAD 66360 · 2025-254N

PAYLOAD ACTIVE UNKNOWN

§ Identity

Operator
Country
US
Launch date
2025-11-06
Launch site
AFWTR
Launch vehicle
Mass (kg)
RCS (m²)

Purposes: comms

External: N2YO · Heavens-Above · Gunter

§ Orbital elements

Epoch: 2026-09-20T18:22:11.737632Z

Period
93.85 min
Inclination
53.1593°
Eccentricity
0.0000781
Mean motion
15.34381871 rev/d
Perigee alt
462.2 km
Apogee alt
463.3 km
Semi-major
6,840.9 km
B*
5.8297e-4
RAAN
44.1431°
Arg perigee
100.3936°
Mean anomaly
259.7154°
Rev number
4,887

§ Raw data

STARLINK-358231 66360U 25254N   26263.76541363  .00019360  00000+0  58297-3 0  99952 66360  53.1593  44.1431 0000781 100.3936 259.7154 15.34381871 48875

JSON: /api/v1/satellites/66360 · /tle

For live sub-satellite position, see the globe view (requires WebGL).

§ Visibility from observer

Set your observer location to see the next 7 days of passes ≥ 10°. The values pass through the URL so the page stays shareable.

No JS? Fill the form by hand. The geolocation button needs JavaScript.